FW1310 Weather Reports


time (UTC)temp
C
wind
direction
speed
KPH
gust
KPH
rain 1hr
cm
rain 24hr
cm
rain mn
cm
humidity
%
barometer
mb
20260505210504 30 241 4.8 9.7 0.00 0.00 0.00 63 992.1
20260505205504 30 284 8.0 14.5 0.00 0.00 0.00 64 992.2
20260505205004 29 228 1.6 4.8 0.00 0.00 0.00 65 992.1
20260505204504 30 326 1.6 11.3 0.00 0.00 0.00 64 992.4
20260505204005 30 126 1.6 11.3 0.00 0.00 0.00 63 992.2
20260505203005 29 247 3.2 8.0 0.00 0.00 0.00 64 992.2
20260505202504 29 304 8.0 14.5 0.00 0.00 0.00 64 992.4
20260505202004 29 234 6.4 16.1 0.00 0.00 0.00 65 992.5
20260505201504 29 280 4.8 14.5 0.00 0.00 0.00 64 992.5
20260505201004 29 209 3.2 16.1 0.00 0.00 0.00 64 992.7
20260505200504 29 301 4.8 11.3 0.00 0.00 0.00 64 992.7
20260505195504 29 200 3.2 11.3 0.00 0.00 0.00 64 992.7
20260505195004 29 299 4.8 9.7 0.00 0.00 0.00 64 992.7
20260505194504 29 280 3.2 9.7 0.00 0.00 0.00 65 992.9
20260505194004 28 321 8.0 14.5 0.00 0.00 0.00 66 992.9
20260505193504 28 34 1.6 16.1 0.00 0.00 0.00 67 993.1
20260505193004 28 288 4.8 12.9 0.00 0.00 0.00 66 992.9
20260505192504 28 288 8.0 12.9 0.00 0.00 0.00 67 993.2
20260505192004 28 332 4.8 11.3 0.00 0.00 0.00 68 993.2
20260505191504 28 274 3.2 16.1 0.00 0.00 0.00 68 993.3
20260505191004 28 189 4.8 16.1 0.00 0.00 0.00 68 993.2
20260505190504 28 268 4.8 16.1 0.00 0.00 0.00 68 993.2
20260505190004 28 303 6.4 14.5 0.00 0.00 0.00 68 993.2
20260505185504 28 8 3.2 14.5 0.00 0.00 0.00 69 993.3
20260505185004 28 337 8.0 12.9 0.00 0.00 0.00 68 993.4
20260505184004 27 314 4.8 11.3 0.00 0.00 0.00 71 993.5
20260505183504 27 210 4.8 9.7 0.00 0.00 0.00 71 993.6
20260505182505 27 317 4.8 12.9 0.00 0.00 0.00 70 993.8
20260505182004 27 269 6.4 14.5 0.00 0.00 0.00 72 993.8
20260505181504 26 310 3.2 14.5 0.00 0.00 0.00 72 993.9
20260505181004 26 353 6.4 14.5 0.00 0.00 0.00 72 994.0
20260505180504 27 306 4.8 11.3 0.00 0.00 0.00 71 994.1
20260505180004 26 286 4.8 12.9 0.00 0.00 0.00 74 994.2
20260505175504 25 350 8.0 14.5 0.00 0.00 0.00 75 994.2
20260505175004 26 317 4.8 14.5 0.00 0.00 0.00 75 994.3
20260505174504 25 311 4.8 14.5 0.00 0.00 0.00 76 994.4
20260505174004 25 339 3.2 14.5 0.00 0.00 0.00 76 994.5
20260505173004 25 304 4.8 11.3 0.00 0.00 0.00 78 994.3
20260505172505 24 354 3.2 11.3 0.00 0.00 0.00 79 994.5
20260505172004 24 7 1.6 14.5 0.00 0.00 0.00 79 994.5
20260505171504 24 321 3.2 4.8 0.00 0.00 0.00 80 994.6
20260505171004 24 11 1.6 16.1 0.00 0.00 0.00 80 994.6
20260505170504 23 337 6.4 16.1 0.00 0.00 0.00 81 994.5
20260505170004 23 292 4.8 11.3 0.00 0.00 0.00 81 994.6
20260505165504 23 93 1.6 11.3 0.00 0.00 0.00 81 994.5
20260505165004 23 194 1.6 11.3 0.00 0.00 0.00 81 994.6
20260505164504 23 275 4.8 12.9 0.00 0.00 0.00 81 994.5
20260505164004 23 271 4.8 19.3 0.00 0.00 0.00 82 994.5
20260505163504 23 317 6.4 19.3 0.00 0.00 0.00 81 994.5
20260505163004 23 38 3.2 9.7 0.00 0.00 0.00 82 994.5
20260505162505 23 356 3.2 9.7 0.00 0.00 0.00 83 994.7
20260505162004 22 345 3.2 11.3 0.00 0.00 0.00 84 994.8
20260505160504 22 38 3.2 12.9 0.00 0.00 0.00 85 994.5
20260505153005 22 311 4.8 14.5 0.00 0.00 0.00 85 994.5
20260505152504 22 336 4.8 14.5 0.00 0.00 0.00 85 994.6
20260505152004 22 21 3.2 14.5 0.00 0.00 0.00 86 994.5
20260505151504 22 249 3.2 8.0 0.00 0.00 0.00 86 994.6
20260505151004 22 98 3.2 11.3 0.00 0.00 0.00 86 994.5
20260505150504 22 317 1.6 14.5 0.00 0.00 0.00 87 994.6
20260505140504 21 294 3.2 11.3 0.00 0.00 0.00 87 993.9
20260505125004 21 307 6.4 12.9 0.00 0.00 0.00 88 993.3
20260505124504 21 268 4.8 9.7 0.00 0.00 0.00 88 993.4
20260505124004 21 31 8.0 12.9 0.00 0.00 0.00 88 993.3
20260505123504 21 307 3.2 14.5 0.00 0.00 0.00 88 993.2
20260505123004 21 291 4.8 11.3 0.00 0.00 0.00 88 993.1
20260505122004 21 5 8.0 12.9 0.00 0.00 0.00 89 992.9
20260505121504 20 293 6.4 12.9 0.00 0.00 0.00 89 992.7
20260505121004 20 348 6.4 19.3 0.00 0.00 0.00 89 992.7
20260505120504 20 278 4.8 14.5 0.00 0.00 0.00 89 992.5
20260505120005 20 309 4.8 19.3 0.00 0.00 0.00 89 992.5
20260505115504 20 345 1.6 4.8 0.00 0.00 0.00 89 992.4
20260505115004 20 208 3.2 9.7 0.00 0.00 0.00 89 992.3
20260505114004 20 290 1.6 11.3 0.00 0.00 0.00 89 992.3
20260505112504 21 351 4.8 9.7 0.00 0.00 0.00 89 992.5
20260505112004 21 288 6.4 16.1 0.00 0.00 0.00 88 992.4
20260505111504 21 314 4.8 12.9 0.00 0.00 0.00 88 992.5
20260505111004 21 270 6.4 12.9 0.00 0.00 0.00 88 992.2
20260505110504 21 0 4.8 12.9 0.00 0.00 0.00 88 992.4
20260505102004 21 336 3.2 14.5 0.00 0.00 0.00 88 992.7
20260505101504 21 315 4.8 14.5 0.00 0.00 0.00 88 992.7
20260505100504 21 338 3.2 9.7 0.00 0.00 0.00 88 992.9
20260505100004 21 335 4.8 9.7 0.00 0.00 0.00 88 992.8
20260505095504 21 324 4.8 19.3 0.00 0.00 0.00 88 993.0
20260505095004 21 283 4.8 14.5 0.00 0.00 0.00 88 992.9
20260505094504 21 273 6.4 16.1 0.00 0.00 0.00 88 993.0
20260505094004 21 307 4.8 16.1 0.00 0.00 0.00 88 992.8
20260505093504 21 101 6.4 14.5 0.00 0.00 0.00 88 992.9
20260505092504 21 12 3.2 9.7 0.00 0.00 0.00 88 992.8
20260505091004 21 268 8.0 20.9 0.00 0.00 0.00 87 993.1
20260505090504 21 321 4.8 12.9 0.00 0.00 0.00 87 993.1
20260505085504 21 18 8.0 14.5 0.00 0.00 0.00 87 993.1
20260505084504 21 18 8.0 20.9 0.00 0.00 0.00 87 993.4
20260505084004 21 333 4.8 12.9 0.00 0.00 0.00 87 993.2
20260505083504 21 296 4.8 12.9 0.00 0.00 0.00 87 993.2
20260505083004 21 324 8.0 12.9 0.00 0.00 0.00 86 993.2
20260505082504 21 297 9.7 19.3 0.00 0.00 0.00 86 993.3
20260505082004 21 225 4.8 12.9 0.00 0.00 0.00 86 993.3
20260505081504 21 294 4.8 16.1 0.00 0.00 0.00 86 993.3
20260505081004 21 261 6.4 14.5 0.00 0.00 0.00 86 993.3
20260505080504 21 324 4.8 16.1 0.00 0.00 0.00 86 993.4
20260505080004 21 287 8.0 22.5 0.00 0.00 0.00 86 993.4
20260505075504 21 322 4.8 22.5 0.00 0.00 0.00 86 993.5
20260505074504 21 322 4.8 16.1 0.00 0.00 0.00 86 993.5
20260505073504 21 344 4.8 14.5 0.00 0.00 0.00 86 993.8
20260505072504 21 312 6.4 14.5 0.00 0.00 0.00 86 993.9
20260505072004 21 315 8.0 16.1 0.00 0.00 0.00 86 994.1
20260505071504 21 344 8.0 14.5 0.00 0.00 0.00 86 994.1
20260505071004 21 281 3.2 19.3 0.00 0.00 0.00 86 994.3
20260505070504 21 331 4.8 19.3 0.00 0.00 0.00 86 994.2
20260505070004 21 63 4.8 19.3 0.00 0.00 0.00 86 994.3
20260505065504 21 357 4.8 11.3 0.00 0.00 0.00 86 994.4
20260505065004 21 220 9.7 22.5 0.00 0.00 0.00 86 994.5
20260505063004 21 296 4.8 12.9 0.00 0.00 0.00 85 994.4
20260505062504 21 264 8.0 12.9 0.00 0.00 0.00 85 994.6
20260505062005 21 286 4.8 12.9 0.00 0.00 0.00 85 994.7
20260505061505 21 252 8.0 16.1 0.00 0.00 0.00 85 994.6
20260505061004 21 267 3.2 8.0 0.00 0.00 0.00 85 994.7
20260505060504 21 318 8.0 16.1 0.00 0.00 0.00 85 994.7
20260505060005 21 280 3.2 14.5 0.00 0.00 0.00 85 994.7
20260505055505 21 264 8.0 20.9 0.00 0.00 0.00 85 994.6
20260505055005 21 263 6.4 14.5 0.00 0.00 0.00 84 994.5
20260505054504 21 315 8.0 12.9 0.00 0.00 0.00 84 994.6
20260505054004 21 298 11.3 20.9 0.00 0.00 0.00 84 994.6
20260505053504 21 273 6.4 14.5 0.00 0.00 0.00 84 994.7
20260505053005 21 341 8.0 20.9 0.00 0.00 0.00 84 994.6
20260505051504 21 268 8.0 20.9 0.00 0.00 0.00 84 994.6
20260505050504 21 311 8.0 14.5 0.00 0.00 0.00 84 994.4
20260505041504 22 320 4.8 9.7 0.00 0.00 0.00 82 994.6
20260505040504 22 284 3.2 9.7 0.00 0.00 0.00 82 994.5
20260505040005 22 324 3.2 9.7 0.00 0.00 0.00 81 994.5
20260505035004 22 285 3.2 9.7 0.00 0.00 0.00 81 994.5
20260505033504 22 300 4.8 14.5 0.00 0.00 0.00 80 994.4
20260505031004 22 337 4.8 9.7 0.00 0.00 0.00 78 994.4
20260505030504 22 298 4.8 16.1 0.00 0.00 0.00 77 994.6
20260505030004 23 237 4.8 14.5 0.00 0.00 0.00 77 994.5
20260505025504 23 274 4.8 14.5 0.00 0.00 0.00 76 994.5
20260505025005 23 270 6.4 11.3 0.00 0.00 0.00 75 994.7
20260505024504 23 343 3.2 9.7 0.00 0.00 0.00 74 994.5
20260505024005 23 217 3.2 8.0 0.00 0.00 0.00 74 994.6
20260505023504 23 271 3.2 8.0 0.00 0.00 0.00 73 994.6
20260505023004 23 266 1.6 4.8 0.00 0.00 0.00 73 994.6
20260505022504 23 283 1.6 9.7 0.00 0.00 0.00 72 994.6
20260505022005 23 280 1.6 4.8 0.00 0.00 0.00 72 994.4
20260505021504 23 292 3.2 8.0 0.00 0.00 0.00 72 994.4
20260505021005 23 290 4.8 11.3 0.00 0.00 0.00 71 994.3
20260505020504 23 103 4.8 11.3 0.00 0.00 0.00 71 994.2
20260505020004 23 198 8.0 16.1 0.00 0.00 0.00 71 994.3
20260505015504 23 285 3.2 14.5 0.00 0.00 0.00 70 994.2
20260505015004 23 0 3.2 11.3 0.00 0.00 0.00 70 994.3
20260505014504 23 302 3.2 8.0 0.00 0.00 0.00 69 994.4
20260505014005 23 274 3.2 8.0 0.00 0.00 0.00 69 994.4
20260505013504 24 289 3.2 11.3 0.00 0.00 0.00 67 994.4
20260505013004 24 345 4.8 12.9 0.00 0.00 0.00 67 994.5
20260505012504 24 260 4.8 14.5 0.00 0.00 0.00 67 994.3
20260505011504 24 292 4.8 11.3 0.00 0.00 0.00 66 994.3
20260505011004 24 309 8.0 16.1 0.00 0.00 0.00 65 994.3
20260505010505 25 224 4.8 19.3 0.00 0.00 0.00 65 994.3
20260505010005 25 19 9.7 14.5 0.00 0.00 0.00 64 994.4
20260505005504 25 222 4.8 14.5 0.00 0.00 0.00 64 994.3
20260505005005 25 268 3.2 9.7 0.00 0.00 0.00 64 994.3
20260505004504 25 301 4.8 14.5 0.00 0.00 0.00 63 994.3
20260505004004 25 246 6.4 16.1 0.00 0.00 0.00 63 994.3
20260505003505 25 299 4.8 14.5 0.00 0.00 0.00 63 994.3
20260505003004 25 297 8.0 16.1 0.00 0.00 0.00 62 994.4
20260505002504 26 311 4.8 12.9 0.00 0.00 0.00 62 994.3
20260505002004 26 336 4.8 16.1 0.00 0.00 0.00 61 994.2
20260505001504 26 340 3.2 16.1 0.00 0.00 0.00 61 994.2
20260505001004 26 294 6.4 16.1 0.00 0.00 0.00 60 994.2
20260505000505 26 353 11.3 27.4 0.00 0.00 0.00 60 994.0
20260505000004 26 334 8.0 24.1 0.00 0.00 0.00 60 994.1
20260504235505 26 346 8.0 22.5 0.00 0.00 0.00 60 994.3
20260504234504 27 331 6.4 12.9 0.00 0.00 0.00 59 994.5
20260504234004 27 331 4.8 12.9 0.00 0.00 0.00 58 994.3
20260504233504 27 165 8.0 20.9 0.00 0.00 0.00 59 994.3
20260504233005 27 276 8.0 12.9 0.00 0.00 0.00 58 994.4
20260504232504 27 296 4.8 12.9 0.00 0.00 0.00 58 994.5
20260504232004 27 303 8.0 12.9 0.00 0.00 0.00 58 994.6
20260504231505 27 329 4.8 14.5 0.00 0.00 0.00 58 994.5
20260504231004 27 340 8.0 14.5 0.00 0.00 0.00 57 994.5
20260504230504 27 278 8.0 16.1 0.00 0.00 0.00 57 994.7
20260504230005 27 118 4.8 22.5 0.00 0.00 0.00 56 994.7
20260504225504 28 308 8.0 22.5 0.00 0.00 0.00 55 994.7
20260504225005 28 259 4.8 16.1 0.00 0.00 0.00 55 994.7
20260504224005 28 300 4.8 14.5 0.00 0.00 0.00 56 994.9
20260504223505 28 228 8.0 16.1 0.00 0.00 0.00 55 994.9
20260504223004 28 282 4.8 12.9 0.00 0.00 0.00 55 994.9
20260504222505 28 212 6.4 14.5 0.00 0.00 0.00 55 994.8
20260504222005 28 304 8.0 16.1 0.00 0.00 0.00 56 995.0
20260504221504 28 303 4.8 16.1 0.00 0.00 0.00 55 995.2
20260504221005 28 347 4.8 22.5 0.00 0.00 0.00 55 995.1
20260504220504 28 302 8.0 19.3 0.00 0.00 0.00 56 995.0
20260504215504 28 279 6.4 19.3 0.00 0.00 0.00 55 995.3
20260504215004 28 275 8.0 19.3 0.00 0.00 0.00 55 995.2
20260504214505 28 321 8.0 12.9 0.00 0.00 0.00 55 995.1
20260504214004 28 321 4.8 14.5 0.00 0.00 0.00 55 995.2
20260504213004 28 16 4.8 20.9 0.00 0.00 0.00 55 995.2
20260504212504 28 10 4.8 14.5 0.00 0.00 0.00 55 995.4
20260504212004 28 288 8.0 16.1 0.00 0.00 0.00 54 995.6
20260504211504 28 264 3.2 12.9 0.00 0.00 0.00 55 995.8
20260504211004 28 346 4.8 14.5 0.00 0.00 0.00 55 995.9